Flag for Poland Weather past 2 weeks in Włocławek, Poland

Now
73 °F

Mild.


Feels Like: 76 °F
Forecast: 60 / 72 °F
Wind: 3 mph from Southeast

Location: Plock

Current Time: Sep 1, 2015 at 4:51:06 AM

Latest Report: Sep 1, 2015 at 3:00 AM


Visibility: 12 mi

Pressure: 29.79 "Hg

Humidity: 62%

Dew point: 59 °F

Location of WłocławekLocation

Historic Weather in Włocławek — Graph

°F

Włocławek temperature yesterday

Maximum temperature yesterday: 92 °F (at 5:00 PM)
Minimum temperature yesterday: 62 °F (at 6:00 AM)
Average temperature yesterday: 78 °F

Past Weeks' High & Low Weather Summary

 TemperatureHumidityPressure
High92 °F (Aug 31, 5:00 PM)96% (Aug 26, 1:00 AM)30.37 "Hg (Aug 26, 1:00 AM)
Low49 °F (Aug 21, 5:00 AM)24% (Aug 18, 5:00 PM)29.79 "Hg (Sep 1, 3:00 AM)
Average69 °F54%30.09 "Hg
* Reported Aug 17 3:00 AM — Sep 1 3:00 AM, Włocławek, Weather by CustomWeather, © 2015

Note: Actual official high and low records may vary slightly from our data, if they occured in-between our weather recording intervals... More about our weather records

Advertising

Włocławek weather history for previous 24 hours

 ConditionsComfort  
Time TempWeatherWind HumidityBarometerVisibility
3:00 AM
Tue, Sep 1
73 °FMild.3 mph62%29.79 "Hg12 mi
2:00 AM75 °FMild.3 mph62%29.82 "Hg12 mi
1:00 AM76 °FMild.3 mph63%29.83 "Hg13 mi
12:00 AM77 °FWarm.3 mph59%29.84 "Hg15 mi
10:00 PM
Mon, Aug 31
80 °FWarm.3 mph49%29.85 "Hg19 mi
9:00 PM81 °FWarm.2 mph50%29.86 "Hg16 mi
8:00 PM83 °FWarm.1 mph46%29.85 "Hg13 mi
7:00 PM88 °FHot.2 mph39%29.86 "Hg19 mi
6:00 PM91 °FHot.3 mph35%29.87 "Hg19 mi
5:00 PM92 °FHot.2 mph34%29.89 "Hg19 mi
4:00 PM92 °FHot.3 mph35%29.90 "Hg16 mi
3:00 PM92 °FHot.3 mph37%29.93 "Hg22 mi
2:00 PM91 °FHot.3 mph38%29.94 "Hg19 mi
1:00 PM89 °FHot.5 mph40%29.96 "Hg18 mi
12:00 PM87 °FWarm.3 mph42%29.97 "Hg14 mi
11:00 AM84 °FWarm.3 mph50%29.99 "Hg16 mi
10:00 AM79 °FWarm.2 mph60%30.00 "Hg13 mi
9:00 AM76 °FMild.2 mph66%30.01 "Hg11 mi
8:00 AM70 °FMild.1 mph77%30.01 "Hg8 mi
7:00 AM64 °FMild.1 mph88%30.02 "Hg6 mi
6:00 AM62 °FMild.1 mph88%30.02 "Hg6 mi
5:00 AM64 °FMild.2 mph86%30.02 "Hg7 mi
4:00 AM64 °FMild.1 mph86%30.03 "Hg7 mi
Weather by CustomWeather, © 2015

See weather overviewHow to use our weather pages